Wetbulb
43.65 43.87 43.94 43.79 43.61 43.28 43.80 43.93 43.79 43.32 43.16 43.30 43.68 43.86 44.85 45.26 45.23 42.42 38.87 39.68 35.93 30.45 29.51 29.40 30.07 26.26 26.19 22.91 15.55 16.49 18.42 15.85 17.28 12.56 3.79 15.22 7.62 15.98 12.24 16.45 14.81 10.04 0.55 -1.58 -3.15 -4.96 2.02 22.06 21.33 14.65 18.00 23.30 24.58 25.72
43.68 43.56 43.56 43.83 43.63 43.41 43.77 43.66 43.65 43.57 43.50 43.56 43.66 43.59 43.85 44.62 44.90 44.04 36.39 39.38 40.51 32.94 30.59 31.63 33.25 33.77 31.91 30.17 25.60 18.06 21.77 12.36 21.33 13.60 7.65 7.37 2.35 4.26 5.95 -0.69 19.41 6.70 12.81 5.53 10.07 9.65 22.16 24.67 22.55 25.38 25.26 24.35 24.11 23.77
42.94 43.28 43.20 43.18 43.06 42.99 43.09 43.05 42.90 42.97 42.83 42.90 43.08 43.28 43.32 43.85 44.41 43.36 38.30 35.52 36.97 32.50 31.08 31.47 29.60 32.73 34.78 33.83 34.85 25.00 23.69 27.94 25.46 26.07 19.35 19.15 12.42 15.44 4.52 4.75 11.89 16.66 21.31 15.24 12.40 20.61 20.84 23.05 24.75 25.46 25.75 25.02 25.35 24.86
42.37 42.42 42.58 42.85 42.93 42.90 42.75 42.72 42.38 42.31 41.94 41.98 42.26 42.50 42.75 43.07 43.52 43.35 38.31 37.41 36.31 32.90 25.14 23.77 28.46 29.61 34.82 34.54 33.61 33.35 31.04 28.58 29.28 28.77 24.57 20.17 13.00 21.03 15.73 17.25 15.07 17.99 18.29 14.60 15.39 20.75 22.22 23.53 24.66 25.27 24.90 23.60 22.62 21.88
41.76 41.95 42.13 42.22 42.32 42.37 42.57 42.48 42.25 41.76 41.73 41.58 41.67 42.01 42.11 42.04 42.40 41.67 40.04 38.28 38.50 31.75 20.02 23.71 22.79 28.67 30.58 30.93 30.37 31.47 30.39 29.03 28.28 25.51 23.35 20.48 20.27 20.69 19.13 19.87 16.67 21.25 18.93 15.85 14.10 22.54 21.84 22.71 25.79 24.87 21.93 21.42 19.61 17.85
41.20 41.40 41.66 41.80 41.88 41.84 41.92 42.00 42.03 41.65 41.45 41.39 41.07 41.29 41.63 41.70 41.84 37.14 31.29 37.15 37.11 37.02 29.29 21.97 26.46 21.56 27.97 29.46 28.58 28.51 29.22 28.84 28.67 25.76 24.41 26.17 24.88 22.75 17.40 14.75 21.58 23.59 24.12 24.43 21.36 25.19 24.45 25.05 24.14 21.55 18.04 17.01 17.53 16.48
40.46 40.69 41.08 41.36 41.60 41.65 41.52 41.57 41.60 41.52 41.28 41.14 40.90 40.96 41.21 41.44 38.97 32.65 29.74 30.61 38.35 37.66 29.07 22.75 20.43 19.58 25.52 24.49 21.53 26.23 27.49 27.30 27.80 26.14 24.18 24.62 23.62 24.59 20.30 15.22 22.35 23.84 24.51 24.31 24.89 21.47 19.99 20.99 18.38 15.91 16.29 15.02 13.64 12.51
39.87 39.93 40.24 40.90 41.08 41.13 41.02 41.15 41.07 41.00 40.97 40.80 40.46 40.38 40.61 40.95 39.98 35.43 38.10 38.91 38.70 33.73 30.30 20.90 11.32 12.37 21.31 15.63 16.21 24.41 23.78 26.00 26.84 24.64 22.64 22.79 23.94 23.97 17.48 21.88 23.39 24.48 22.92 20.87 13.48 14.42 13.66 12.96 13.20 11.58 11.29 10.29 7.28 7.44
39.21 39.11 39.48 40.06 40.41 40.78 40.50 40.59 40.58 40.47 40.32 40.22 39.90 39.74 37.05 35.29 31.02 31.50 40.20 39.83 37.84 31.52 22.90 21.44 12.16 10.02 22.40 20.21 21.57 18.99 25.33 19.73 25.58 21.19 21.24 21.73 19.66 15.68 17.96 20.73 18.32 8.91 8.89 6.10 8.48 8.48 7.23 5.49 5.77 6.54 5.76 4.68 3.30 4.15
38.09 38.49 38.74 39.60 40.03 39.94 40.16 40.08 40.00 39.79 39.86 39.56 36.27 31.54 27.43 31.17 37.28 37.64 34.13 29.31 29.71 28.18 27.22 19.31 6.26 6.34 20.12 16.32 8.72 10.60 20.27 18.72 14.57 17.52 21.55 18.74 15.99 21.91 9.28 6.37 6.12 5.00 3.83 3.63 1.36 2.27 -1.01 -0.99 1.18 1.63 1.09 2.32 2.71 2.61
37.19 37.43 38.38 38.33 38.57 38.65 39.13 39.47 39.57 39.28 38.70 33.04 29.29 27.79 30.83 36.68 31.81 27.96 22.80 21.36 22.05 18.67 21.92 13.71 15.64 14.47 18.33 8.10 10.20 20.86 18.24 19.10 13.16 8.78 11.74 7.44 -0.24 14.01 4.04 1.59 3.31 3.93 2.89 1.00 -0.70 -0.31 -0.34 -0.84 -1.59 -1.26 -0.67 -0.14 -0.99 -2.03
35.86 36.48 37.28 37.38 37.61 37.68 38.35 39.02 39.15 36.18 32.68 32.30 31.78 33.12 32.83 28.79 24.33 19.51 17.85 19.77 18.38 11.69 6.51 16.36 18.00 18.29 12.73 20.89 19.20 20.97 17.20 17.26 10.12 3.12 1.80 -6.54 7.46 -1.64 -2.81 -2.16 -0.97 -0.62 -3.91 -5.20 -4.02 -3.85 -2.38 -1.07 -1.24 -2.93 -4.43 -4.86 -4.83 -4.28
35.06 35.29 36.01 36.61 36.55 37.03 37.53 38.14 39.27 37.94 36.47 32.52 28.55 24.61 24.40 21.72 14.69 12.28 7.19 9.05 6.63 0.68 0.61 3.90 7.73 14.81 21.47 23.12 20.26 19.24 14.30 11.05 4.35 -1.18 0.25 4.15 -2.51 -5.16 -8.18 -6.13 -5.77 -5.16 -5.84 -4.67 -5.75 -4.87 -5.16 -5.75 -5.67 -6.95 -7.75 -6.41 -6.12 -6.02
34.66 34.88 35.17 35.61 36.03 36.14 36.26 36.94 38.18 37.23 31.89 24.67 20.85 15.00 16.04 12.81 15.26 7.92 2.25 4.91 5.97 4.04 0.80 1.56 1.29 14.53 16.72 17.04 19.16 12.02 13.66 7.31 1.56 -1.78 -1.57 -10.42 -10.69 -14.22 -10.69 -8.46 -13.96 -8.99 -8.78 -9.84 -10.49 -9.76 -9.32 -9.11 -8.89 -8.27 -8.54 -7.87 -7.13 -6.61
34.17 34.02 34.46 34.22 34.98 35.32 35.79 36.27 36.67 34.04 28.40 22.21 21.37 11.44 13.29 2.44 -5.90 -8.77 -10.40 -4.35 -0.54 2.84 6.62 4.88 6.37 18.80 14.45 15.77 17.45 13.81 9.08 7.08 1.48 0.24 -9.13 -12.55 -10.25 -13.35 -12.24 -13.73 -16.84 -14.53 -12.65 -12.77 -12.11 -12.80 -11.73 -11.14 -11.43 -11.19 -9.49 -7.54 -5.69 -3.34
33.83 33.26 30.62 34.17 34.35 34.89 35.28 34.89 31.66 30.00 27.11 23.27 17.55 12.04 5.59 -0.50 -5.79 -3.67 -7.99 2.56 5.61 10.03 7.84 11.05 13.39 12.78 12.14 13.38 10.39 5.41 2.02 -1.06 0.73 -15.53 -14.39 -12.41 -18.05 -19.10 -19.66 -19.04 -16.22 -15.05 -16.04 -14.70 -14.34 -14.21 -12.63 -12.69 -12.01 -10.75 -8.21 -6.56 -2.62 -2.02
33.30 21.23 32.34 33.87 34.47 34.72 34.68 26.57 28.23 22.02 18.69 10.14 4.53 -0.76 3.44 0.86 0.23 -3.77 0.61 1.93 5.24 4.86 -0.43 7.01 7.58 5.46 10.91 8.70 4.39 1.94 -0.04 -9.96 -17.19 -20.94 -23.22 -22.03 -21.73 -20.78 -21.49 -20.60 -19.26 -18.59 -17.90 -16.82 -16.53 -15.45 -13.59 -12.65 -12.57 -9.78 -6.82 -3.26 -2.52 -2.37
21.96 27.07 32.63 33.20 32.03 30.98 24.56 23.23 15.73 11.05 2.74 1.93 4.48 -7.36 -4.00 -5.55 -3.73 -4.41 -5.26 0.38 1.36 0.44 -3.58 1.32 4.25 -1.23 -0.56 -3.92 -5.42 -14.02 -21.80 -27.86 -28.21 -25.89 -20.72 -20.35 -23.87 -23.08 -24.17 -22.50 -19.23 -18.94 -18.54 -17.64 -16.49 -18.04 -18.63 -11.62 -6.78 -4.55 -3.39 -2.94 -3.02 -2.71
28.32 29.50 32.86 33.32 30.66 23.48 18.35 11.29 11.62 0.70 -3.83 -6.58 -2.72 -3.03 -5.76 -6.85 -3.61 -4.98 -8.28 -1.42 -1.49 -3.14 -3.45 -8.51 -6.80 -8.95 -6.65 -18.96 -23.10 -29.05 -32.66 -29.73 -24.40 -16.66 -17.07 -20.60 -18.31 -23.52 -20.18 -19.14 -17.98 -20.22 -18.60 -19.25 -15.80 -8.35 -4.74 -3.62 -3.17 -2.44 -2.72 -2.60 -4.18 -3.20
29.17 29.88 29.18 29.44 26.51 18.44 10.37 6.05 8.61 1.53 -1.95 -2.87 -4.31 -6.23 -7.01 -7.24 -9.81 -14.78 -17.12 -7.88 -3.76 -14.50 -7.91 -9.85 -12.11 -22.32 -15.39 -19.18 -21.39 -22.45 -19.59 -16.12 -23.36 -25.66 -20.97 -16.20 -16.20 -23.65 -18.59 -18.21 -14.46 -13.97 -11.11 -7.57 -6.27 -4.28 -4.99 -5.17 -3.46 -2.41 -1.97 -2.33 -3.71 -4.10
22.44 22.85 23.90 16.99 11.79 9.92 6.15 4.95 0.20 -0.46 -2.52 -4.59 -4.56 -6.26 -9.65 -13.85 -21.89 -24.88 -23.39 -9.99 -12.50 -9.34 -14.87 -27.37 -30.79 -29.70 -29.24 -28.56 -24.56 -24.07 -16.64 -16.25 -22.71 -22.06 -21.93 -20.14 -16.00 -17.05 -14.93 -9.55 -8.34 -8.11 -8.48 -8.77 -9.08 -7.91 -7.24 -8.07 -6.33 -3.97 -3.25 -2.91 -1.98 -1.59
14.96 19.64 12.56 13.95 8.78 6.31 3.55 2.53 1.16 -0.74 -4.54 -8.12 -8.31 -13.32 -21.68 -23.36 -25.72 -25.21 -16.54 -17.79 -17.70 -22.93 -25.92 -26.33 -28.18 -29.87 -28.64 -25.30 -26.23 -31.56 -27.91 -28.62 -28.04 -22.26 -14.48 -13.80 -15.24 -10.21 -8.48 -8.84 -10.11 -11.07 -9.63 -9.89 -9.83 -9.54 -8.45 -7.32 -6.36 -5.54 -4.96 -4.46 -3.00 -3.25
11.53 10.78 4.04 0.48 0.24 -1.95 -4.67 -0.59 -5.17 -8.75 -9.15 -12.50 -15.96 -15.94 -21.33 -27.19 -24.03 -10.53 -16.55 -26.74 -27.04 -24.13 -32.10 -31.30 -31.39 -35.31 -28.93 -29.65 -30.52 -27.69 -26.53 -23.66 -21.87 -20.01 -14.34 -11.31 -9.07 -7.45 -7.44 -8.01 -9.69 -12.04 -12.25 -10.60 -9.70 -9.18 -9.23 -7.63 -7.86 -8.49 -7.95 -6.88 -7.14 -7.40
3.87 -7.48 -10.77 -12.73 -10.22 -14.42 -16.32 -14.32 -10.69 -12.68 -14.97 -18.64 -19.85 -22.66 -24.73 -27.28 -16.46 -20.56 -21.62 -32.45 -27.69 -29.43 -28.85 -28.35 -31.25 -24.99 -25.59 -25.23 -24.21 -22.80 -21.08 -20.32 -13.43 -13.05 -11.52 -10.04 -8.63 -8.37 -7.36 -7.79 -8.99 -10.10 -10.96 -10.80 -10.15 -10.34 -9.91 -10.55 -10.01 -10.80 -12.22 -13.76 -13.57 -14.26
-4.12 -19.71 -16.85 -22.70 -20.90 -19.65 -23.23 -25.46 -23.71 -19.84 -23.13 -27.71 -25.66 -24.63 -22.28 -27.77 -23.75 -25.88 -23.50 -26.64 -31.37 -31.68 -29.09 -32.05 -29.18 -25.43 -26.52 -27.26 -19.63 -16.78 -11.75 -11.71 -10.97 -11.36 -9.92 -9.02 -8.74 -7.55 -7.49 -7.12 -7.74 -10.29 -10.83 -12.80 -14.06 -14.51 -14.22 -12.88 -13.40 -14.34 -14.56 -16.28 -17.78 -18.06
-25.18 -27.39 -25.14 -33.32 -25.95 -22.71 -27.76 -26.07 -28.58 -26.31 -28.06 -27.26 -27.89 -27.40 -31.19 -27.53 -24.81 -22.30 -24.80 -28.21 -32.70 -28.42 -25.78 -19.41 -19.01 -22.53 -21.22 -16.91 -13.07 -11.36 -11.40 -10.56 -10.45 -11.59 -8.84 -7.96 -8.66 -11.61 -12.46 -12.28 -12.71 -11.25 -12.39 -14.96 -17.51 -19.38 -18.63 -16.18 -16.30 -16.82 -17.31 -19.13 -20.39 -28.73
-27.88 -29.44 -28.34 -28.83 -26.55 -27.37 -26.31 -26.56 -27.03 -25.70 -27.01 -25.52 -29.00 -26.58 -26.40 -23.87 -25.40 -20.68 -26.13 -25.33 -23.90 -21.95 -16.80 -15.56 -15.06 -14.86 -14.23 -13.75 -10.08 -10.34 -9.02 -8.55 -9.03 -9.39 -10.15 -9.84 -8.58 -9.60 -10.86 -13.43 -13.82 -12.05 -15.79 -17.67 -19.28 -21.26 -21.06 -19.79 -18.27 -17.49 -19.99 -25.92 -31.15 -32.92
-29.24 -31.96 -26.18 -28.62 -30.99 -34.32 -32.01 -33.82 -30.70 -27.94 -27.49 -26.11 -26.78 -25.49 -24.62 -21.61 -19.86 -21.71 -18.54 -12.36 -16.95 -16.84 -17.03 -15.09 -11.11 -10.74 -11.42 -10.07 -8.69 -7.97 -9.70 -12.57 -12.93 -12.23 -13.51 -12.17 -12.18 -11.58 -12.56 -12.77 -12.33 -3.82 -9.39 -15.11 -16.41 -17.49 -20.39 -19.34 -19.25 -17.60 -22.71 -23.32 -22.07 -30.28
-30.92 -35.35 -32.12 -30.21 -33.40 -30.93 -31.65 -29.35 -29.95 -31.76 -29.52 -32.02 -27.32 -25.31 -23.23 -21.78 -24.16 -23.94 -17.55 -14.53 -19.19 -14.84 -13.84 -12.68 -11.96 -11.83 -10.83 -10.09 -9.31 -11.04 -12.60 -14.56 -14.75 -14.94 -16.51 -16.54 -15.75 -11.44 -13.92 -14.24 -15.41 -18.28 -20.65 -23.51 -13.81 -7.53 -11.29 -12.05 -10.35 -13.95 -20.37 -21.71 -22.38 -32.52
-30.66 -37.09 -26.95 -31.26 -27.60 -26.63 -30.23 -36.06 -36.03 -40.93 -40.95 -36.24 -36.53 -26.55 -26.36 -25.58 -22.49 -19.62 -16.52 -14.93 -11.79 -12.07 -12.52 -12.57 -13.55 -11.52 -13.75 -18.18 -20.00 -20.05 -24.53 -19.97 -16.81 -16.23 -20.54 -20.23 -17.06 -19.51 -25.52 -24.53 -24.21 -23.43 -25.41 -30.37 -21.54 -20.32 -14.58 -18.24 -19.51 -24.30 -24.33 -23.86 -25.11 -26.02
-40.75 -40.77 -33.49 -35.02 -30.55 -36.02 -40.40 -46.39 -47.91 -45.68 -43.89 -43.41 -46.71 -35.78 -31.14 -29.82 -24.87 -21.00 -17.68 -16.36 -20.40 -27.64 -24.29 -24.16 -26.23 -32.17 -26.01 -27.08 -27.64 -27.49 -18.91 -23.43 -24.79 -20.57 -21.19 -20.96 -22.15 -22.15 -20.32 -18.97 -18.93 -23.85 -28.16 -27.86 -25.60 -27.34 -24.22 -25.04 -27.55 -24.72 -23.56 -23.14 -22.30 -20.66
-41.87 -40.69 -32.97 -27.05 -30.51 -39.21 -45.08 -45.08 -46.10 -40.86 -43.81 -40.00 -35.94 -45.14 -34.77 -32.18 -26.63 -22.15 -25.34 -27.21 -28.71 -27.59 -21.06 -25.32 -25.95 -16.22 -20.77 -17.96 -25.63 -22.50 -15.98 -19.28 -24.38 -20.25 -20.59 -18.55 -17.58 -16.12 -16.06 -15.94 -18.78 -23.61 -24.53 -21.79 -22.74 -23.65 -22.90 -22.44 -20.46 -19.87 -19.15 -20.61 -20.72 -20.86
-46.25 -48.54 -48.92 -39.60 -34.19 -32.82 -40.13 -39.41 -37.83 -36.32 -39.46 -39.70 -38.23 -44.18 -44.27 -36.36 -25.44 -20.99 -23.89 -30.17 -23.90 -20.97 -19.66 -18.79 -17.74 -22.58 -21.73 -18.77 -17.49 -16.21 -14.25 -14.35 -13.68 -6.52 -4.47 -5.59 -8.07 -8.39 -10.14 -12.19 -15.38 -18.88 -20.30 -19.78 -18.86 -18.71 -19.74 -19.92 -19.16 -18.70 -19.03 -19.61 -19.22 -18.90
MSLP
1014.35 1014.41 1014.52 1014.59 1014.70 1014.76 1014.74 1014.77 1014.92 1015.02 1015.12 1015.30 1015.37 1015.45 1015.66 1015.71 1015.90 1016.31 1016.68 1017.39 1017.93 1017.43 1016.71 1016.89 1016.89 1017.32 1017.52 1017.99 1018.93 1019.15 1019.79 1019.67 1020.06 1020.48 1021.14 1020.70 1020.36 1019.15 1018.57 1017.87 1017.59 1018.05 1018.85 1019.24 1018.62 1017.76 1015.76 1013.71 1013.05 1013.89 1013.45 1013.18 1013.29 1013.35
1013.26 1013.28 1013.31 1013.44 1013.66 1013.77 1013.81 1013.96 1014.17 1014.35 1014.47 1014.59 1014.61 1014.53 1014.55 1014.82 1014.99 1015.34 1015.94 1016.27 1016.80 1017.03 1016.26 1015.88 1015.51 1015.36 1015.95 1016.04 1017.08 1018.27 1018.53 1018.58 1018.64 1019.25 1020.03 1020.05 1020.14 1019.64 1018.74 1018.45 1017.36 1017.64 1017.36 1017.51 1017.24 1015.18 1013.58 1012.83 1013.11 1012.48 1012.73 1012.73 1012.69 1012.91
1012.10 1012.30 1012.41 1012.48 1012.59 1012.67 1012.76 1012.92 1013.05 1013.19 1013.44 1013.55 1013.72 1013.61 1013.69 1013.90 1014.06 1014.38 1014.91 1015.62 1016.21 1016.10 1015.80 1015.87 1014.84 1014.83 1014.74 1015.02 1015.20 1016.49 1016.81 1017.11 1017.19 1017.32 1018.24 1018.63 1018.85 1018.15 1018.11 1017.40 1016.80 1016.00 1015.52 1015.87 1015.55 1013.94 1013.15 1012.60 1012.23 1012.28 1012.08 1012.28 1012.44 1012.64
1011.10 1011.14 1011.28 1011.36 1011.53 1011.65 1011.77 1011.96 1012.19 1012.35 1012.36 1012.49 1012.63 1012.76 1012.91 1013.02 1013.27 1013.50 1013.93 1014.44 1015.09 1015.13 1014.77 1013.85 1013.89 1013.83 1013.39 1014.11 1014.55 1014.61 1014.67 1015.64 1015.99 1016.47 1016.70 1016.77 1016.89 1016.20 1016.04 1015.54 1015.35 1014.36 1014.69 1014.29 1013.54 1012.65 1012.32 1011.70 1011.52 1011.50 1011.79 1012.11 1012.43 1012.75
1009.99 1010.06 1010.12 1010.22 1010.34 1010.48 1010.67 1010.93 1011.15 1011.28 1011.46 1011.56 1011.85 1011.98 1012.05 1012.24 1012.36 1012.70 1013.04 1013.40 1013.76 1014.55 1013.96 1013.97 1013.95 1013.38 1012.96 1013.17 1013.61 1013.95 1014.47 1014.95 1015.16 1015.23 1014.94 1014.65 1014.68 1015.03 1014.62 1014.38 1013.19 1013.28 1012.96 1013.04 1011.95 1011.23 1011.42 1011.16 1010.78 1011.09 1011.80 1012.22 1012.70 1013.16
1008.75 1008.78 1008.84 1008.96 1009.10 1009.25 1009.46 1009.71 1009.99 1010.37 1010.58 1010.71 1010.85 1011.12 1011.25 1011.47 1011.74 1012.47 1012.23 1012.13 1012.39 1013.14 1013.40 1012.98 1012.42 1012.22 1012.07 1012.69 1012.96 1013.29 1013.38 1013.80 1013.86 1013.66 1013.34 1013.33 1012.95 1013.21 1012.95 1012.21 1011.37 1011.79 1011.61 1011.21 1010.98 1010.64 1010.93 1010.80 1011.13 1011.87 1012.45 1012.91 1013.23 1013.47
1007.47 1007.50 1007.56 1007.65 1007.77 1007.95 1008.20 1008.49 1008.81 1009.15 1009.53 1009.77 1009.92 1010.12 1010.33 1010.51 1010.92 1011.04 1010.91 1010.83 1011.04 1012.18 1012.53 1012.57 1012.61 1011.98 1011.90 1012.25 1012.76 1012.64 1012.74 1012.86 1012.90 1012.58 1012.06 1012.15 1011.83 1012.18 1011.46 1010.95 1010.77 1010.90 1010.69 1010.81 1010.77 1011.24 1011.46 1011.66 1012.34 1013.16 1013.53 1013.74 1013.82 1013.79
1006.27 1006.30 1006.35 1006.43 1006.56 1006.78 1007.07 1007.40 1007.83 1008.15 1008.49 1008.77 1009.03 1009.21 1009.49 1009.64 1009.87 1009.76 1009.93 1010.41 1010.86 1011.56 1011.74 1011.84 1012.11 1012.79 1011.93 1012.57 1012.68 1011.89 1011.99 1012.07 1011.67 1011.40 1011.24 1011.11 1011.19 1011.37 1010.78 1010.78 1010.84 1010.85 1011.24 1011.44 1012.54 1013.02 1013.30 1013.53 1013.82 1014.23 1014.59 1014.68 1014.46 1014.14
1005.19 1005.23 1005.23 1005.23 1005.49 1005.86 1006.00 1006.39 1006.83 1007.19 1007.55 1007.94 1008.26 1008.59 1008.93 1009.01 1008.82 1008.77 1008.82 1009.49 1010.15 1010.79 1010.60 1010.95 1011.72 1012.31 1011.82 1012.04 1011.92 1011.89 1011.56 1011.38 1010.85 1010.67 1010.50 1011.02 1010.87 1010.67 1010.72 1011.37 1012.00 1013.01 1013.63 1014.18 1014.34 1014.50 1014.76 1015.04 1015.13 1015.13 1015.26 1015.41 1015.43 1014.62
1004.19 1004.30 1004.44 1004.23 1004.30 1004.68 1005.09 1005.39 1005.99 1006.30 1006.80 1007.23 1008.12 1008.43 1007.99 1007.81 1007.63 1008.10 1008.77 1009.08 1009.04 1009.17 1009.58 1010.01 1010.99 1011.71 1011.32 1011.41 1011.47 1011.70 1011.03 1010.72 1010.49 1010.10 1010.22 1010.69 1010.75 1011.01 1012.39 1013.54 1014.37 1015.14 1015.77 1016.13 1016.20 1016.07 1016.27 1016.28 1016.36 1016.08 1016.08 1016.14 1015.95 1015.38
1003.45 1003.53 1003.65 1003.62 1003.77 1003.86 1004.15 1004.56 1005.13 1005.75 1006.13 1006.88 1007.04 1007.13 1007.34 1007.34 1007.79 1008.22 1008.38 1008.74 1009.02 1009.29 1009.14 1009.47 1009.71 1010.14 1010.11 1010.54 1010.71 1010.51 1009.96 1009.91 1010.07 1010.37 1011.31 1012.24 1012.82 1012.85 1014.48 1015.59 1016.36 1016.94 1017.41 1017.81 1018.18 1018.16 1018.07 1017.83 1017.41 1016.87 1016.24 1016.32 1016.19 1015.74
1002.49 1002.51 1002.69 1002.83 1002.98 1003.13 1003.39 1003.68 1004.16 1004.95 1005.26 1005.65 1006.40 1006.91 1007.30 1007.32 1007.61 1008.17 1008.36 1008.84 1009.03 1009.47 1009.95 1009.88 1009.42 1009.13 1009.12 1009.02 1009.42 1009.25 1009.19 1009.99 1010.41 1011.67 1013.18 1014.26 1013.94 1015.40 1016.59 1017.40 1017.99 1018.52 1018.85 1018.95 1019.12 1018.89 1018.63 1018.30 1018.03 1017.68 1017.09 1016.43 1016.07 1015.51
1001.58 1001.70 1001.91 1001.99 1002.10 1002.32 1002.55 1003.07 1003.33 1003.92 1004.89 1005.68 1005.73 1006.48 1006.85 1007.16 1007.76 1008.19 1008.98 1009.75 1010.08 1010.08 1010.23 1010.22 1009.79 1009.19 1008.88 1008.79 1008.63 1008.29 1008.59 1009.94 1011.76 1013.20 1014.39 1014.91 1016.12 1017.68 1018.57 1018.97 1019.24 1019.58 1019.64 1019.47 1019.33 1019.19 1018.98 1018.64 1018.39 1017.98 1017.07 1016.46 1015.77 1015.11
1000.49 1000.64 1000.91 1001.22 1001.41 1001.62 1001.93 1002.32 1002.92 1003.33 1003.85 1004.69 1005.06 1005.79 1006.60 1007.44 1008.08 1008.65 1009.51 1009.80 1009.69 1009.96 1010.46 1010.37 1009.94 1009.19 1008.70 1008.50 1008.10 1008.63 1009.31 1010.82 1012.92 1015.13 1015.79 1016.73 1018.31 1019.48 1019.97 1020.03 1020.22 1020.21 1020.17 1019.97 1019.74 1019.40 1018.97 1018.55 1017.89 1017.52 1016.97 1016.10 1015.35 1014.53
999.54 999.72 999.95 1000.22 1000.45 1000.75 1001.13 1001.58 1002.09 1002.80 1003.17 1003.91 1004.50 1005.60 1006.88 1007.76 1009.08 1010.04 1010.22 1010.53 1010.88 1010.79 1010.24 1010.62 1010.01 1009.06 1008.86 1008.53 1008.43 1009.30 1010.78 1012.38 1014.29 1015.91 1017.08 1018.68 1019.99 1020.71 1020.86 1020.95 1020.87 1020.68 1020.48 1020.23 1019.87 1019.40 1018.72 1018.21 1017.64 1016.84 1016.11 1015.44 1014.77 1013.87
998.74 999.04 999.31 999.50 999.69 999.99 1000.32 1000.73 1001.42 1002.46 1003.01 1004.09 1005.07 1006.98 1008.38 1009.51 1010.80 1011.14 1011.44 1011.61 1011.36 1011.04 1010.77 1010.29 1010.17 1009.67 1009.40 1009.39 1009.97 1011.09 1012.99 1014.64 1015.99 1017.93 1019.45 1020.36 1021.09 1021.55 1021.61 1021.46 1021.22 1020.87 1020.61 1020.17 1019.73 1019.11 1018.42 1017.80 1017.08 1016.20 1015.33 1014.67 1013.93 1013.34
997.94 998.70 998.61 998.76 998.95 999.29 999.83 1000.81 1001.69 1002.46 1003.78 1005.85 1007.62 1008.78 1009.38 1010.55 1011.12 1011.71 1011.78 1012.05 1011.96 1011.99 1011.88 1011.75 1010.92 1010.36 1011.00 1011.70 1012.87 1013.86 1015.56 1017.10 1018.81 1020.30 1021.01 1021.49 1022.03 1022.05 1021.98 1021.74 1021.31 1020.79 1020.39 1019.81 1019.20 1018.50 1017.73 1016.84 1016.10 1015.47 1014.63 1013.87 1013.36 1012.79
998.75 998.71 998.35 998.31 999.02 999.66 1000.76 1001.44 1002.78 1004.48 1006.60 1008.22 1009.33 1010.99 1011.34 1012.18 1013.16 1013.18 1013.24 1013.18 1013.03 1012.72 1012.55 1012.81 1012.45 1012.86 1013.75 1014.88 1015.76 1017.22 1018.56 1019.82 1020.80 1021.39 1021.71 1021.75 1021.97 1021.99 1021.69 1021.59 1020.92 1020.35 1019.78 1019.13 1018.46 1017.71 1016.89 1016.10 1015.25 1014.51 1013.92 1013.40 1012.90 1012.42
998.99 998.44 998.15 998.29 999.18 1000.16 1001.61 1003.83 1004.58 1006.91 1009.42 1010.48 1011.71 1012.39 1012.96 1013.81 1014.58 1014.82 1014.76 1014.65 1014.49 1013.98 1013.66 1014.44 1015.51 1016.29 1016.41 1017.49 1018.69 1019.79 1021.07 1021.44 1022.15 1021.86 1021.82 1021.65 1021.48 1021.47 1021.18 1020.74 1020.16 1019.60 1019.03 1018.46 1017.78 1017.01 1016.18 1015.44 1014.72 1014.12 1013.66 1013.19 1012.82 1012.46
999.24 998.95 998.95 999.11 999.36 1001.33 1003.60 1005.72 1006.67 1008.20 1010.16 1011.60 1012.67 1013.54 1014.71 1015.69 1016.37 1016.60 1016.37 1016.06 1015.98 1015.51 1016.00 1017.23 1017.99 1018.74 1019.08 1019.87 1020.56 1021.17 1021.54 1021.91 1022.36 1022.48 1022.10 1021.59 1021.14 1020.89 1020.53 1020.10 1019.68 1019.15 1018.59 1017.96 1017.35 1016.70 1016.01 1015.35 1014.71 1014.12 1013.60 1013.21 1012.87 1012.58
1000.03 1000.25 1000.19 1000.19 1002.31 1003.87 1006.16 1007.54 1008.72 1010.08 1011.48 1012.71 1014.15 1015.18 1016.50 1017.32 1018.05 1018.46 1018.41 1017.87 1017.38 1017.76 1018.86 1019.84 1020.36 1020.99 1021.22 1021.36 1021.37 1021.59 1021.91 1022.16 1022.23 1022.21 1022.05 1021.58 1020.75 1020.36 1019.95 1019.74 1019.43 1019.02 1018.57 1018.08 1017.51 1016.89 1016.32 1015.81 1015.22 1014.54 1013.97 1013.53 1013.20 1012.91
1001.70 1001.33 1001.74 1002.25 1004.12 1006.20 1007.87 1009.36 1010.07 1011.43 1012.58 1014.22 1015.32 1016.70 1018.37 1020.08 1020.12 1019.78 1019.02 1018.51 1019.27 1020.15 1020.72 1021.12 1021.65 1021.79 1022.06 1022.14 1022.19 1021.94 1021.90 1021.89 1021.78 1021.57 1021.22 1020.90 1020.55 1020.06 1019.79 1019.77 1019.49 1019.20 1018.76 1018.43 1017.94 1017.40 1016.84 1016.32 1015.78 1015.17 1014.67 1014.27 1013.92 1013.68
1002.55 1002.80 1004.46 1005.62 1006.93 1008.66 1011.29 1011.00 1011.68 1012.97 1014.21 1015.94 1017.00 1018.33 1020.05 1020.52 1019.87 1019.25 1019.83 1020.61 1020.93 1021.02 1021.54 1021.93 1021.99 1021.97 1022.20 1021.93 1021.93 1021.96 1022.05 1021.71 1021.66 1021.11 1020.67 1020.32 1020.02 1019.83 1019.72 1019.67 1019.61 1019.46 1019.15 1018.79 1018.47 1018.02 1017.58 1017.14 1016.70 1016.23 1015.77 1015.34 1015.04 1014.80
1004.76 1007.49 1009.32 1010.36 1011.32 1013.17 1013.37 1014.04 1014.37 1015.37 1016.41 1017.64 1018.89 1020.18 1020.72 1020.77 1019.87 1020.33 1020.98 1021.26 1021.34 1021.75 1022.10 1022.34 1022.23 1022.48 1022.41 1022.25 1022.22 1021.99 1021.39 1021.25 1020.95 1020.67 1020.33 1020.01 1019.74 1019.61 1019.47 1019.44 1019.55 1019.69 1019.71 1019.44 1019.02 1018.67 1018.32 1018.00 1017.63 1017.24 1016.99 1016.68 1016.48 1016.39
1007.87 1014.18 1014.56 1015.46 1015.84 1015.96 1016.94 1017.41 1017.65 1018.00 1019.22 1019.70 1020.61 1021.17 1021.10 1020.93 1020.52 1021.00 1021.38 1021.31 1021.61 1022.33 1021.87 1022.24 1022.30 1021.95 1022.06 1021.68 1021.45 1020.90 1020.51 1020.46 1020.47 1020.38 1019.99 1019.82 1019.70 1019.53 1019.42 1019.36 1019.44 1019.75 1019.84 1019.75 1019.60 1019.36 1019.02 1018.63 1018.32 1018.07 1017.85 1017.77 1017.79 1017.80
1014.33 1018.29 1018.67 1019.17 1019.15 1019.06 1020.09 1020.20 1020.45 1020.64 1020.69 1021.15 1021.21 1020.90 1020.76 1021.00 1021.12 1020.79 1020.33 1020.60 1020.79 1021.02 1020.81 1020.85 1021.00 1021.13 1020.96 1020.59 1020.41 1020.23 1020.03 1019.99 1020.04 1019.99 1019.58 1019.54 1019.59 1019.70 1019.70 1019.73 1019.75 1019.81 1019.98 1020.11 1020.13 1019.96 1019.63 1019.25 1018.94 1018.71 1018.59 1018.55 1018.60 1018.82
1018.59 1020.81 1021.01 1020.77 1020.80 1020.87 1021.26 1021.35 1021.33 1021.59 1022.03 1022.09 1022.11 1021.91 1021.63 1021.24 1020.75 1019.66 1019.29 1019.22 1019.32 1019.10 1018.96 1019.09 1019.33 1019.58 1019.67 1019.63 1019.56 1019.48 1019.54 1019.57 1019.58 1019.45 1019.34 1019.36 1019.30 1019.36 1019.57 1019.72 1019.71 1019.62 1019.67 1019.84 1020.06 1019.96 1019.87 1019.54 1019.18 1018.96 1019.03 1018.90 1018.82 1018.84
1021.56 1022.68 1022.88 1022.87 1022.51 1022.90 1023.13 1023.42 1023.50 1023.63 1023.44 1023.20 1022.94 1022.43 1021.82 1020.79 1020.06 1018.97 1018.59 1018.27 1018.28 1018.20 1018.31 1018.48 1018.61 1018.72 1018.96 1019.01 1019.05 1019.21 1019.36 1019.39 1019.39 1019.20 1019.08 1018.91 1018.81 1018.84 1018.97 1019.11 1019.14 1019.15 1019.21 1019.33 1019.40 1019.37 1019.38 1019.06 1018.74 1018.51 1018.61 1018.78 1018.56 1018.49
1023.65 1024.10 1024.05 1024.13 1023.91 1024.05 1024.68 1024.94 1025.26 1025.05 1024.65 1024.57 1024.24 1023.05 1021.86 1020.33 1019.17 1018.78 1018.17 1018.07 1018.05 1018.32 1018.63 1018.68 1018.72 1018.72 1018.87 1018.98 1019.09 1019.23 1019.44 1019.66 1019.89 1019.64 1019.48 1019.28 1019.16 1018.83 1018.47 1018.65 1018.76 1018.86 1018.97 1019.06 1018.85 1018.58 1018.33 1018.08 1017.53 1017.49 1017.75 1017.95 1017.90 1018.11
1025.64 1025.61 1025.16 1025.24 1025.13 1025.54 1025.82 1026.14 1026.54 1026.13 1025.77 1025.62 1025.33 1023.77 1022.37 1020.66 1018.92 1018.32 1018.24 1018.28 1018.37 1018.53 1018.60 1018.62 1018.67 1019.10 1019.25 1019.35 1019.41 1019.55 1019.34 1019.35 1019.30 1019.53 1019.25 1019.05 1019.20 1018.87 1018.65 1018.68 1018.66 1018.46 1018.54 1018.62 1018.52 1018.15 1017.86 1017.66 1017.43 1017.51 1017.51 1017.62 1017.57 1017.52
1026.66 1026.40 1026.21 1025.93 1026.16 1026.31 1026.81 1027.18 1026.98 1026.84 1026.42 1026.20 1025.89 1025.52 1023.95 1022.11 1019.74 1018.24 1018.18 1018.01 1018.14 1018.63 1019.19 1019.42 1019.62 1019.74 1019.63 1019.45 1019.66 1019.88 1019.39 1018.82 1018.57 1018.44 1018.38 1018.35 1018.24 1018.19 1017.98 1017.79 1017.69 1017.75 1017.87 1018.07 1018.16 1017.86 1017.67 1017.52 1017.30 1017.20 1017.05 1016.87 1016.56 1016.41
1027.28 1027.64 1027.62 1026.96 1026.73 1026.72 1027.23 1027.50 1027.15 1026.84 1026.60 1026.55 1026.26 1025.97 1024.38 1023.43 1021.59 1018.74 1017.84 1018.06 1018.70 1018.90 1018.65 1018.91 1018.96 1018.69 1018.19 1018.23 1018.45 1018.22 1017.70 1017.77 1017.85 1017.67 1017.60 1017.49 1017.26 1016.89 1016.74 1016.68 1016.69 1016.85 1017.09 1017.21 1017.16 1016.96 1016.85 1016.77 1016.50 1016.17 1015.89 1015.51 1015.20 1014.88
1028.24 1028.34 1028.32 1027.70 1027.19 1027.15 1027.40 1027.47 1026.98 1026.38 1026.21 1025.98 1025.99 1025.58 1024.94 1024.32 1022.43 1019.19 1017.80 1017.74 1017.91 1018.01 1017.88 1017.94 1017.65 1017.57 1017.50 1017.40 1017.32 1017.14 1017.08 1016.89 1016.69 1016.64 1016.43 1016.28 1016.07 1015.84 1015.77 1015.65 1015.60 1015.73 1015.97 1015.91 1015.74 1015.63 1015.49 1015.31 1015.07 1014.68 1014.37 1014.12 1013.77 1013.42
Wind_Speed
24 23 23 23 21 21 23 21 22 21 21 23 22 19 19 20 22 13 4 9 7 5 11 6 7 9 2 3 5 5 4 3 2 2 5 5 4 5 0 1 4 5 4 4 2 1 10 6 11 3 7 4 9 4
25 25 24 23 23 23 25 21 20 22 20 21 22 23 20 21 22 17 5 6 7 7 3 4 13 14 12 11 5 3 6 6 5 2 1 2 3 2 4 4 4 3 8 6 10 8 7 18 15 12 6 9 5 5
25 26 27 26 26 26 25 22 21 19 20 20 21 22 22 20 21 19 5 4 4 5 9 10 12 11 8 11 14 8 3 7 8 5 4 4 7 4 4 7 8 7 12 5 2 12 14 12 12 13 13 12 6 7
26 26 26 26 27 26 25 24 22 24 21 23 20 21 22 20 20 19 6 5 5 2 4 7 3 6 14 13 13 14 17 2 6 4 6 5 5 6 6 8 9 9 4 7 10 16 15 20 15 15 10 7 7 5
26 26 27 27 26 26 25 25 26 22 21 20 19 20 19 19 19 13 6 6 8 6 3 2 1 6 5 11 14 14 13 10 8 6 5 8 4 4 3 5 12 9 18 12 16 21 15 16 16 3 6 7 3 5
26 27 27 28 28 27 26 25 25 24 23 22 19 18 20 19 18 3 4 8 10 9 5 5 3 4 10 12 10 12 12 10 7 5 6 6 5 6 5 7 15 13 14 18 20 21 17 18 7 2 2 3 6 7
26 26 26 27 27 27 25 24 24 24 23 22 20 18 18 18 9 5 4 3 12 9 5 4 4 4 3 4 2 5 5 5 5 6 8 10 7 7 5 14 18 13 15 13 13 4 10 6 5 6 6 8 10 11
24 24 24 26 26 25 24 23 22 21 22 21 19 16 17 17 15 10 8 4 10 4 4 4 5 3 3 2 2 4 4 5 6 7 3 8 4 6 9 9 13 14 10 6 6 5 4 6 5 6 7 8 12 13
23 21 24 24 23 24 22 22 22 22 19 19 16 15 6 5 4 3 14 19 7 5 4 4 6 4 2 3 2 0 3 4 3 6 8 5 6 8 9 10 6 6 3 6 7 4 4 5 9 8 8 8 11 15
21 21 20 22 23 21 22 21 20 19 18 16 6 3 4 5 5 10 5 4 8 5 5 4 2 3 5 4 3 3 3 5 4 6 3 6 9 9 4 5 6 6 6 6 5 5 6 5 8 12 12 12 12 14
20 18 20 18 19 20 20 20 20 18 14 4 5 4 2 7 2 3 5 5 4 4 3 4 7 5 3 4 6 5 4 4 5 6 7 2 4 4 7 6 5 5 5 4 3 6 8 9 12 13 15 12 13 14
18 18 20 20 20 18 18 21 22 12 5 6 4 4 2 4 4 6 5 3 5 8 3 5 5 5 2 3 4 5 4 5 5 3 5 3 5 5 5 4 4 5 6 6 4 8 10 12 11 13 14 15 15 15
20 16 17 18 16 16 17 16 18 15 11 2 5 6 5 4 7 8 8 3 2 2 3 1 2 3 3 4 5 4 5 5 3 3 5 6 4 4 2 2 2 3 4 7 8 7 10 12 11 11 15 14 15 15
21 19 18 17 19 17 15 16 17 14 5 6 5 7 6 5 5 5 6 7 4 4 4 3 1 3 2 4 3 4 2 4 2 2 8 2 2 3 3 1 2 7 8 9 9 10 11 12 13 11 12 12 13 14
18 16 18 16 17 17 18 19 19 8 3 5 5 7 7 4 2 2 2 4 2 1 3 3 2 3 3 4 4 2 3 4 6 7 2 2 1 2 3 3 4 6 7 8 8 9 11 12 12 13 12 11 11 12
16 15 10 16 16 17 18 16 8 4 3 4 2 4 2 5 2 2 1 3 0 1 1 1 2 2 4 3 4 6 4 7 5 3 3 2 3 4 4 4 6 7 7 9 9 9 11 11 11 12 12 11 9 9
14 4 9 14 17 15 14 3 3 2 4 5 3 2 2 3 1 2 2 3 1 3 3 2 6 7 2 2 3 4 6 2 3 3 2 3 4 5 5 6 7 7 8 8 8 9 10 9 9 9 9 8 8 8
2 3 7 8 5 5 4 4 5 5 5 4 0 0 1 3 1 2 2 2 0 3 3 5 2 3 6 6 5 3 2 2 3 3 3 3 4 5 3 6 7 7 7 8 8 7 6 8 7 5 6 7 7 6
9 8 9 9 7 4 3 4 4 6 3 2 2 2 3 3 4 3 2 2 1 2 4 3 4 4 5 3 4 2 2 2 2 2 2 4 3 4 6 6 6 5 6 5 6 6 6 6 6 5 4 4 4 4
12 22 18 15 8 4 5 4 3 5 3 4 3 3 4 3 1 2 3 2 2 1 3 2 4 3 3 3 3 3 3 3 3 2 3 3 3 3 5 3 3 6 5 6 6 7 6 5 5 6 4 4 4 4
8 8 13 7 5 7 6 3 5 4 4 4 2 3 3 3 3 4 3 3 1 2 1 3 3 3 1 0 1 2 1 3 4 4 4 2 3 2 3 4 5 4 4 5 6 6 7 6 6 6 5 5 5 4
3 11 4 6 5 4 6 6 4 2 4 3 3 3 3 2 2 3 3 4 1 2 3 3 3 2 1 0 3 4 3 3 2 2 4 3 2 2 3 4 4 5 4 5 5 6 6 7 7 6 6 6 6 5
7 6 6 7 6 7 2 2 4 5 5 2 2 4 3 3 3 2 1 2 4 2 3 2 2 2 3 2 2 1 3 3 1 1 1 1 1 1 1 1 3 3 4 5 5 5 6 10 8 7 7 7 6 6
12 9 8 6 6 3 3 5 3 4 3 4 3 1 2 2 2 3 2 3 4 2 1 2 2 3 3 3 1 1 2 2 1 0 1 1 0 1 1 1 1 1 2 4 4 4 5 5 8 6 6 6 6 5
9 11 7 7 4 7 7 6 6 6 3 2 4 2 3 0 3 1 3 4 2 2 2 1 2 2 4 2 1 2 2 2 1 1 2 1 1 1 1 1 1 1 2 3 4 5 5 5 5 6 6 5 6 7
11 5 5 1 4 5 1 4 1 3 3 2 1 3 3 4 3 4 4 4 4 5 4 5 5 2 1 3 2 2 3 3 2 2 2 3 2 2 1 2 2 1 1 0 1 3 4 4 5 6 6 6 6 4
7 4 4 1 2 2 4 2 1 4 3 2 2 1 3 2 4 5 3 3 3 4 4 4 4 4 3 3 2 2 2 3 3 2 1 3 3 3 4 3 3 3 2 2 2 3 3 5 5 5 5 3 4 4
2 3 3 4 4 1 5 2 2 2 2 1 3 1 5 6 5 4 4 2 2 2 3 2 3 3 3 2 2 2 1 0 2 3 3 3 4 3 5 4 4 8 4 3 3 3 4 5 5 6 4 5 5 3
4 3 1 4 3 4 1 3 3 3 1 3 3 3 4 4 3 2 2 2 2 3 3 3 1 1 1 0 1 2 2 2 1 2 2 3 3 3 3 3 3 2 2 3 7 7 7 7 7 4 5 5 4 3
3 2 2 1 2 1 3 3 2 3 1 1 1 4 4 4 4 1 0 1 3 3 2 2 2 3 3 3 2 4 3 4 5 5 4 4 5 3 2 3 3 3 2 2 5 5 7 4 5 4 3 4 3 4
1 2 3 2 1 3 3 2 2 1 2 2 1 2 4 5 6 3 3 3 3 3 3 1 2 2 4 3 3 1 4 3 6 8 6 4 4 5 5 5 5 3 3 3 4 3 3 3 3 5 7 8 9 7
3 2 2 2 3 3 3 3 1 1 3 3 2 2 4 3 4 4 2 4 3 2 5 4 4 6 6 5 3 4 6 3 3 5 7 5 6 7 6 5 4 3 4 5 5 4 6 8 7 8 9 10 9 9
2 0 0 1 4 4 4 3 4 4 2 2 3 2 2 2 5 5 3 2 4 4 4 5 5 3 5 6 6 5 6 6 7 9 10 11 12 11 7 5 5 5 6 6 7 7 9 10 10 10 10 10 10 10
Wind_Direction
256 252 250 253 254 258 259 249 249 255 257 256 258 259 258 250 236 223 212 189 208 228 241 193 187 211 144 163 179 239 12 332 40 145 148 229 200 220 199 262 183 153 153 230 51 85 273 15 355 114 221 276 271 210
255 255 252 255 254 254 262 256 255 256 255 260 258 265 252 256 245 228 227 189 206 242 263 254 223 211 201 206 213 194 215 182 201 113 270 52 291 0 163 244 196 266 197 209 188 214 308 320 288 279 273 253 224 222
258 254 257 255 257 257 258 257 256 257 260 258 255 260 254 254 247 233 215 159 183 246 257 240 232 227 224 216 205 231 201 208 224 178 187 213 231 144 226 233 255 242 236 215 31 263 261 264 272 281 282 249 237 233
260 259 259 255 252 255 252 248 250 254 253 260 261 261 259 250 250 239 221 177 201 235 250 261 8 195 219 217 214 220 249 236 242 202 227 204 214 198 233 238 218 228 124 223 253 268 273 269 261 263 250 237 239 227
260 260 258 256 253 253 250 247 248 251 253 260 255 258 265 263 255 244 219 195 199 202 226 256 278 242 215 189 206 216 220 229 226 217 214 235 200 215 215 238 246 221 242 246 253 263 261 273 278 247 221 252 231 278
262 261 258 254 252 250 250 249 244 245 248 255 258 254 259 258 250 189 245 213 199 196 253 232 303 220 199 201 196 208 211 219 216 224 233 226 206 202 221 237 257 252 237 239 254 266 269 269 301 96 276 314 298 292
262 260 259 256 252 250 247 244 242 242 242 249 252 251 257 256 240 201 205 199 192 176 230 239 246 253 224 163 205 218 187 213 215 234 231 242 229 216 236 251 260 242 246 252 254 260 263 250 291 354 326 326 314 295
260 260 260 257 252 248 247 242 243 241 238 243 252 254 256 250 257 230 223 175 153 192 210 224 249 8 194 167 222 192 183 191 208 230 232 233 220 218 244 244 247 258 273 291 30 18 342 328 330 334 328 322 306 297
262 263 270 256 244 248 244 237 235 239 238 240 252 251 271 227 214 195 178 179 179 201 211 197 161 221 153 195 201 46 199 213 192 219 228 190 218 224 226 256 277 36 35 335 327 335 11 344 315 314 314 307 292 299
270 256 265 264 247 243 243 232 235 235 232 233 223 173 226 199 187 119 146 208 208 191 215 192 39 189 157 170 247 105 195 215 220 220 161 213 237 243 75 88 84 71 48 10 355 336 341 312 318 315 308 299 288 295
266 262 263 250 247 242 236 233 224 238 225 185 193 204 177 156 93 179 207 195 171 220 215 202 178 206 216 145 211 223 210 201 213 239 169 188 273 184 108 91 65 52 30 16 341 296 292 289 300 304 305 303 302 298
270 267 254 249 249 248 249 240 219 214 175 175 135 108 180 186 203 194 187 207 201 199 232 167 210 193 244 116 167 195 208 198 230 96 103 238 238 81 66 48 21 8 344 317 299 294 298 297 302 299 296 298 298 298
259 256 257 252 244 242 238 234 230 205 149 152 183 172 182 179 214 191 183 191 226 197 213 193 212 162 157 196 220 218 224 201 125 87 213 223 95 84 9 325 321 308 302 309 305 298 295 292 289 282 288 288 292 294
262 248 246 246 242 235 232 222 226 218 170 187 185 187 195 185 215 186 176 179 217 125 147 125 83 158 193 191 203 225 185 115 115 189 230 189 172 267 289 288 6 318 313 302 296 293 291 292 292 289 279 283 289 291
251 248 248 242 242 238 229 222 213 199 201 210 188 201 190 177 53 201 179 85 326 106 109 70 19 195 190 227 210 178 190 233 200 221 211 226 275 296 304 300 292 297 300 299 295 294 294 293 291 290 284 281 284 287
255 249 245 236 237 237 228 217 207 150 196 224 135 132 78 59 287 106 88 132 234 71 27 59 143 186 231 232 195 216 150 216 233 181 220 317 295 282 269 276 284 285 285 288 286 284 286 284 281 282 290 286 290 302
253 197 213 227 229 222 225 139 162 148 131 154 121 35 3 72 105 120 137 162 129 97 174 190 171 203 42 220 241 190 210 189 192 246 236 223 247 269 273 285 287 284 283 281 283 282 277 277 278 278 285 310 308 306
47 290 285 228 140 62 43 19 75 62 68 49 121 133 63 59 71 74 19 6 57 146 122 190 80 129 195 189 248 208 226 253 226 229 245 264 273 282 261 271 284 274 277 282 277 275 265 278 288 303 310 315 314 320
53 9 250 204 121 90 85 52 39 99 76 79 102 53 74 74 44 36 28 327 301 253 100 59 102 196 225 175 177 235 252 207 223 283 273 275 270 272 290 292 282 287 295 287 295 297 309 315 314 316 321 322 327 329
43 38 43 82 76 80 81 47 57 101 112 110 50 50 63 62 38 24 358 330 319 57 79 143 209 200 146 196 183 171 182 176 134 3 306 300 290 309 298 297 311 309 310 322 330 346 340 341 341 338 340 347 346 347
32 359 24 52 62 54 69 42 61 71 112 74 91 39 63 15 28 18 333 296 58 33 346 202 202 240 264 219 123 129 162 154 186 180 203 286 305 312 315 350 343 337 346 350 348 347 360 352 337 336 344 353 360 0
344 13 55 22 79 68 73 19 79 87 69 80 78 57 59 42 299 263 246 49 52 238 181 168 210 169 60 226 216 201 201 165 232 248 253 253 304 339 7 7 354 350 351 360 348 350 351 352 350 349 354 357 5 13
18 27 51 18 82 44 38 357 76 13 81 71 53 59 16 349 259 284 29 192 249 244 179 175 192 178 150 297 45 343 199 160 144 212 239 246 254 322 346 22 8 359 348 353 346 348 353 355 354 0 358 9 9 14
30 45 33 37 31 73 7 26 35 62 68 53 77 65 302 235 321 50 243 258 253 310 68 183 107 63 9 24 61 243 253 169 174 276 262 248 223 329 319 318 84 25 348 311 335 344 353 356 355 359 6 3 9 10
71 355 28 9 1 50 40 19 2 46 68 358 79 307 259 340 61 10 235 271 288 247 233 177 138 135 146 234 258 237 218 153 179 246 227 201 282 297 343 325 137 103 4 353 359 349 345 345 354 357 1 6 1 354
67 313 53 306 333 78 191 84 68 166 143 77 235 267 27 77 66 251 236 222 217 195 187 179 166 143 262 193 163 185 215 176 157 224 249 186 204 195 242 322 331 289 129 151 303 318 327 330 335 345 342 344 339 341
65 340 322 330 129 108 45 20 64 76 72 143 243 37 70 72 261 255 281 221 200 220 189 166 163 163 178 178 204 201 172 176 206 233 230 227 222 199 196 213 246 239 177 205 210 219 276 305 307 306 299 292 264 250
127 31 77 310 41 13 123 85 85 150 211 250 76 119 163 191 237 238 210 244 205 153 127 141 155 153 148 176 174 164 232 176 292 277 274 249 227 217 213 227 241 264 251 207 237 236 229 249 267 278 263 273 282 239
40 327 40 12 5 33 124 145 206 241 211 108 144 242 249 241 230 214 251 209 144 115 128 145 206 127 92 258 239 222 190 159 107 322 305 285 329 295 201 216 235 242 238 253 276 267 255 251 265 247 244 254 271 274
329 360 66 40 76 321 259 165 225 262 264 196 249 308 303 281 255 255 229 131 161 186 185 164 148 164 202 173 268 310 253 198 193 177 195 233 229 241 221 232 249 254 243 252 278 294 307 329 321 328 311 294 272 274
326 29 56 63 223 254 241 284 297 331 21 0 333 167 253 303 304 240 213 196 146 112 119 199 267 215 175 201 192 234 293 256 214 226 232 247 257 256 253 248 239 226 216 229 251 251 268 277 256 278 284 280 277 267
8 90 115 12 300 289 21 41 355 32 334 15 287 331 317 345 290 285 219 116 106 192 222 181 200 244 208 227 216 232 225 256 227 226 234 236 246 249 249 249 233 207 224 240 235 233 237 248 265 263 267 268 269 269
37 73 146 18 1 2 331 41 22 336 1 329 282 226 233 200 248 283 309 200 184 200 207 217 234 232 223 225 230 244 237 244 255 261 260 252 252 257 262 249 233 215 227 236 240 237 244 244 254 260 262 260 266 270